Regional Weather Roundup
Issued by NWS

Current Version | Previous Version | Text Only | Print | Product List | Glossary Off
Versions: 1 2 3 4 5 6 7 8 9 10 11 12 13 14 15 16 17 18 19 20 21 22 23 24 25 26 27 28 29 30 31 32 33 34 35 36 37 38 39 40 41 42 43 44 45 46 47 48 49 50

000
ASUS44 KJAN 021210
RWRMS

MISSISSIPPI HOURLY WEATHER ROUNDUP
NATIONAL WEATHER SERVICE JACKSON MS
600 AM CST MON MAR 02 2015

NOTE: "FAIR: INDICATES FEW OR NO CLOUDS BELOW 12,000 FEET WITH NO
SIGNIFICANT WEATHER AND/OR OBSTRUCTIONS TO VISIBILITY.

MSZ001>002-007>008-010>013-018>021-025>028-034>036-021300-
NORTHWEST MISSISSIPPI

CITY           SKY/WX    TMP DP  RH WIND       PRES   REMARKS
CLARKSDALE     CLOUDY    36  36 100 N18G24    30.43R WCI  25
CLEVELAND      CLOUDY    37  37 100 N20G25    30.38R FOG     WCI  27
GREENWOOD        N/A    N/A N/A N/A MISG      30.34R
GREENVILLE     CLOUDY    39  37  92 N21       30.36R FOG     WCI  29
6HR MIN TEMP:  39; 6HR MAX TEMP:  42; 6HR PCP:  0.11;

OLIVE BRANCH   CLOUDY    32  32 100 NE14G20   30.43S WCI  22
OXFORD         CLOUDY    36  34  93 N8G17     30.41R FOG     WCI  29
TUNICA         CLOUDY    34  32  93 N16       30.44S WCI  23
$$

MSZ003>006-009-014>017-022>024-029>033-037>039-021300-
NORTHEAST MISSISSIPPI

CITY           SKY/WX    TMP DP  RH WIND       PRES   REMARKS
COLUMBUS AFB   LGT RAIN  48  48 100 N12       30.34R
6HR MIN TEMP:  48; 6HR MAX TEMP:  53; 6HR PCP:  0.18;

CORINTH        CLOUDY    37  36  93 N10       30.42R WCI  30
GOLDN TRIANGLE CLOUDY    50  46  87 N14       30.33R
STARKVILLE     RAIN      48  48 100 N8        30.33R
TUPELO         CLOUDY    40  38  93 NE14      30.38R WCI  32
6HR MIN TEMP:  40; 6HR MAX TEMP:  51; 6HR PCP:  0.06;

$$

MSZ040-058-021300-
CENTRAL MISSISSIPPI

CITY           SKY/WX    TMP DP  RH WIND       PRES   REMARKS
JACKSON INTL   FOG       51  51 100 N8        30.30R VSB 3/4
6HR MIN TEMP:  51; 6HR MAX TEMP:  57; 6HR PCP:  0.01;

JACKSON HAWKNS FOG       50  49  96 N5        30.30R VSB 1
6HR MIN TEMP:  50; 6HR MAX TEMP:  58; 6HR PCP: TRACE;

MERIDIAN KEY   FOG       54  54 100 NE3       30.29S VSB 3/4
6HR MIN TEMP:  54; 6HR MAX TEMP:  55; 6HR PCP: TRACE;

MERIDIAN NAS   LGT RAIN  54  53  97 E3        30.30S VSB 3/4
6HR MIN TEMP:  54; 6HR MAX TEMP:  55; 6HR PCP:  0.02;

VICKSBURG      CLOUDY    43  42  97 N13       30.32S FOG
6HR MIN TEMP:  43; 6HR MAX TEMP:  47; 6HR PCP: TRACE;

$$

MSZ059>079-021300-
SOUTH MISSISSIPPI

CITY           SKY/WX    TMP DP  RH WIND       PRES   REMARKS
BROOKHAVEN     CLOUDY    57  57 100 CALM      30.28S
HATTIESBURG    FOG       59  58  96 CALM      30.28R VSB 1/2
6HR MIN TEMP:  58; 6HR MAX TEMP:  60; 6HR PCP:  0.11;

MCCOMB         RAIN      60  59  96 CALM      30.26R VSB 1
6HR MIN TEMP:  60; 6HR MAX TEMP:  62; 6HR PCP:  0.05;

NATCHEZ        CLOUDY    46  45  93 N8        30.29S VSB 1
6HR MIN TEMP:  46; 6HR MAX TEMP:  54; 6HR PCP:  0.13;

PINE BELT      CLOUDY    57  54  88 CALM      30.28S VSB 1/2
6HR MIN TEMP:  55; 6HR MAX TEMP:  57;

$$

MSZ080>082-021300-
COASTAL MISSISSIPPI

CITY           SKY/WX    TMP DP  RH WIND       PRES   REMARKS
BILOXI         CLOUDY    59  59 100 SE6       30.26S
6HR MIN TEMP:  57; 6HR MAX TEMP:  59; 6HR PCP:  0.28;

PASCAGOULA     LGT RAIN  57  57 100 SE5       30.27S VSB 1/4
6HR MIN TEMP:  57; 6HR MAX TEMP:  58; 6HR PCP:  0.35;

GULFPORT       LGT RAIN  58  57  97 E6        30.26S FOG
6HR MIN TEMP:  57; 6HR MAX TEMP:  59; 6HR PCP:  0.43;

$$


USA.gov is the U.S. government's official web portal to all federal, state and local government web resources and services.